Torna al catalogo

NAVSTAR 69

USA 248

AttivoNavigazioneHEO
NORAD 39533·PAYLOAD·🇺🇸 United States

Lanciato Feb 21, 2014 da Cape Canaveral Space Force Station

Loading…

Prossimi Passaggi (prossime 24 ore)

TLE

AggiornatoSource: CelesTrak SupGP

Epoca: Sep 16, 2026, 16:44 UTC

1 39533C 14008A   26259.69756944  .00000000  00000+0  00000+0 0  2597
2 39533  53.6644 145.5855 0083586 231.5173 324.8248  2.00565975    19

Traccia NAVSTAR 69 in tempo reale con AllMySat

Download on the App Store